Probability
0 0 0 0 0 0 0 0 0 0 0 0 0 0 0 0 0 0 0 0 0 0 0 0 1 2 3 3 2 1 0 0 0 0 0 0 0 0 0 0 0 0 0 0 0 0 0 0 0
0 0 0 0 0 0 0 0 0 0 0 0 0 0 0 0 0 0 0 0 0 0 0 0 1 2 3 3 3 2 1 0 0 0 0 0 0 0 0 0 0 0 0 0 0 0 0 0 0
0 0 0 0 0 0 0 0 0 0 0 0 0 0 0 0 0 0 0 1 1 0 0 0 1 3 3 3 3 3 2 1 0 0 0 0 0 0 0 0 0 0 0 0 0 0 0 0 0
0 0 0 0 0 0 0 0 0 0 0 0 0 0 0 0 0 0 1 2 2 1 0 1 2 3 4 3 3 3 3 2 1 0 0 0 0 0 0 0 0 0 0 0 0 0 0 0 0
0 0 0 0 0 0 0 0 0 0 0 0 0 0 0 1 1 1 1 3 3 2 1 2 3 4 4 4 3 3 3 3 1 0 0 0 0 0 0 0 0 0 0 0 0 0 0 0 0
0 0 0 0 0 0 0 0 0 0 0 0 0 0 1 2 2 2 3 3 3 2 1 1 2 3 4 3 3 3 3 3 2 1 0 0 0 0 0 0 0 0 0 0 0 0 0 0 0
0 0 0 0 0 0 0 0 0 0 0 0 0 1 2 3 3 3 3 3 3 2 1 0 1 2 3 3 3 3 3 3 2 1 0 0 0 0 0 0 0 0 0 0 0 0 0 0 0
0 0 0 0 0 0 0 0 0 0 0 0 1 2 3 3 3 3 3 3 3 1 0 0 0 1 2 3 3 3 3 2 1 0 0 0 0 0 0 0 0 0 0 0 0 0 0 0 0
0 0 0 0 0 0 0 0 0 0 0 1 2 3 3 3 3 3 3 3 2 1 0 0 0 0 1 3 3 3 3 1 0 0 0 0 0 0 0 0 0 0 0 0 0 0 0 0 0
0 0 0 0 0 0 0 0 0 0 1 2 3 3 3 3 3 3 2 2 1 0 0 0 0 0 1 2 3 3 2 1 0 0 0 0 0 0 0 0 0 0 0 0 0 0 0 0 0
0 0 0 0 0 0 0 0 0 1 2 2 3 3 3 3 3 1 1 1 0 0 0 0 0 0 0 1 3 3 1 0 0 0 0 0 0 0 0 0 0 0 0 0 0 0 0 0 0
0 0 0 0 0 0 0 0 0 1 2 2 3 3 3 3 3 1 0 0 0 0 0 0 0 0 0 1 2 2 1 0 0 0 0 0 0 0 0 0 0 0 0 0 0 0 0 0 0
0 0 0 0 0 0 0 0 0 1 1 2 3 3 3 3 3 2 1 0 0 0 0 0 0 0 0 0 1 1 0 0 0 0 0 0 0 0 0 0 0 0 0 0 0 0 0 0 0
0 0 0 0 0 0 0 0 0 1 2 1 2 3 2 3 3 2 1 0 0 0 0 0 0 0 0 0 0 0 0 0 0 0 0 0 0 0 0 0 0 0 0 0 0 0 0 0 0
0 0 0 0 0 0 0 0 0 1 2 2 2 2 1 1 2 1 0 0 0 0 0 0 0 0 0 0 0 0 0 0 0 0 0 0 0 0 0 0 0 0 0 0 0 0 0 0 0
0 0 0 0 0 0 0 0 0 0 1 2 2 2 0 0 0 0 0 0 0 0 0 0 0 0 0 0 0 0 0 0 0 0 0 0 0 0 0 0 0 0 0 0 0 0 0 0 0
0 0 0 0 0 0 0 0 0 0 0 1 2 1 0 0 0 0 0 0 0 0 0 0 0 0 0 0 0 0 0 0 0 0 0 0 0 0 0 0 0 0 0 0 0 0 0 0 0
0 0 0 0 0 0 0 0 0 0 0 0 0 0 0 0 0 0 0 0 0 0 0 0 0 0 0 0 0 0 0 0 0 0 0 0 0 0 0 0 0 0 0 0 0 0 0 0 0
0 0 0 0 0 0 0 0 0 0 0 0 0 0 0 0 0 0 0 0 0 0 0 0 0 0 0 0 0 0 0 0 0 0 0 0 0 0 0 0 0 0 0 0 0 0 0 0 0
0 0 0 0 0 0 0 0 0 0 0 0 0 0 0 0 0 0 0 0 0 0 0 0 0 0 0 0 0 0 0 0 0 0 0 0 0 0 0 0 0 0 0 0 0 0 0 0 0
0 0 0 0 0 0 0 0 0 0 0 0 0 0 0 0 0 0 0 0 0 0 0 0 0 0 0 0 0 0 0 0 0 0 0 0 0 0 0 0 0 0 0 0 0 0 0 0 0
0 0 0 0 0 0 0 0 0 0 0 0 0 1 0 0 0 0 0 0 0 0 0 0 0 0 0 0 0 0 0 0 0 0 0 0 0 0 0 0 0 0 0 0 0 0 0 0 0
0 0 0 0 0 0 0 0 0 0 0 0 0 0 0 0 0 0 0 0 0 0 0 0 0 0 0 0 0 0 0 0 0 0 0 0 0 0 0 0 0 0 0 0 0 0 0 0 0
0 0 0 0 0 0 0 0 0 0 0 0 0 0 0 0 0 0 0 0 0 0 0 0 0 0 0 0 0 0 0 0 0 0 0 0 0 0 0 0 0 0 0 0 0 0 0 0 0
0 0 0 0 0 0 0 0 0 0 0 0 0 0 0 0 0 0 0 0 0 0 0 0 0 0 0 0 0 0 0 0 0 0 0 0 0 0 0 0 0 0 0 0 0 0 0 0 0
0 0 0 0 0 0 0 0 0 0 0 0 0 0 0 0 0 0 0 0 0 0 0 0 0 0 0 0 0 0 0 0 0 0 0 0 0 0 0 0 0 0 0 0 0 0 0 0 0
0 0 0 0 0 0 0 0 0 0 0 0 0 0 0 0 0 0 0 0 0 0 0 0 0 0 0 0 0 0 0 0 0 0 0 0 0 0 0 0 0 0 0 0 0 0 0 0 0
0 0 0 0 0 0 0 0 0 0 0 0 0 0 0 0 0 0 0 0 0 0 0 0 0 0 0 0 0 0 0 0 0 0 0 0 0 0 0 0 0 0 0 0 0 0 0 0 0
0 0 0 0 0 0 0 0 0 0 0 0 0 0 0 0 0 0 0 0 0 0 0 0 0 0 0 0 0 0 0 0 0 0 0 0 0 0 0 0 0 0 0 0 0 0 0 0 0
0 0 0 0 0 0 0 0 0 0 0 0 0 0 0 0 0 0 0 0 0 0 0 0 0 0 0 0 0 0 0 0 0 0 0 0 0 0 0 0 0 0 0 0 0 0 0 0 0
Wind_Speed
11 7 2 4 6 5 1 1 0 2 3 2 3 6 7 5 3 4 1 2 3 2 2 3 4 6 7 7 8 8 8 9 9 9 9 10 10 10 10 10 10 9 9 9 10 10 10 10 9
5 4 4 5 5 2 1 1 1 1 2 2 5 6 7 5 4 4 2 1 3 3 2 2 5 6 7 7 8 8 8 9 9 9 9 10 10 10 10 10 9 9 9 9 9 9 9 9 9
4 2 4 5 3 3 3 1 2 2 3 4 4 5 5 3 2 2 0 2 4 3 2 3 5 7 7 8 8 8 8 9 9 9 9 9 9 9 10 9 9 9 9 10 9 9 8 8 8
3 4 5 5 2 1 2 1 2 3 4 5 4 5 3 3 1 2 3 4 5 3 3 3 6 7 7 7 8 8 8 8 8 8 8 8 8 9 9 9 9 9 9 9 9 9 8 7 8
4 4 4 2 1 1 0 1 1 3 3 3 4 5 2 2 4 5 5 5 5 4 3 4 6 6 7 7 8 7 8 8 8 8 8 7 7 7 7 7 8 8 8 8 8 8 8 8 8
4 4 4 2 2 1 0 1 2 3 3 2 4 4 2 1 4 4 5 5 5 4 4 4 6 6 6 7 7 7 7 7 7 7 7 7 6 7 6 7 7 7 7 7 7 7 8 8 9
4 4 3 4 3 1 1 1 2 3 3 1 3 5 2 1 2 4 4 5 4 4 4 4 3 4 5 5 6 6 6 7 7 7 6 6 6 6 6 6 6 6 6 6 7 7 7 8 9
3 4 2 2 3 2 1 1 1 3 3 1 2 6 4 3 2 4 4 4 4 4 3 3 3 2 2 2 4 5 6 6 6 7 6 6 5 6 7 5 6 6 6 6 7 7 7 8 8
3 4 2 3 4 3 1 2 1 2 3 2 2 2 4 6 5 5 4 3 3 3 2 2 2 2 2 2 3 3 4 5 5 5 5 4 2 3 4 5 5 5 6 6 6 7 7 7 7
4 3 3 2 3 3 1 2 2 2 2 2 3 3 5 6 6 6 5 3 2 1 1 1 2 2 2 1 2 2 2 2 2 2 2 2 2 2 3 4 4 4 5 5 6 6 6 5 3
3 4 2 0 0 2 2 2 1 4 2 4 6 7 6 5 5 5 4 3 3 2 1 1 1 2 2 1 1 1 1 1 1 2 2 2 2 2 2 1 2 2 3 2 3 3 2 2 2
3 2 1 0 1 2 2 2 1 2 3 4 7 9 8 6 5 4 4 3 2 2 1 1 1 2 1 1 1 1 1 1 1 1 1 2 1 1 1 1 1 1 1 1 1 1 2 2 2
3 1 1 2 3 3 4 2 1 1 1 3 6 8 7 7 5 3 3 3 2 2 1 1 1 2 1 1 1 2 1 1 1 1 1 2 1 1 0 0 0 0 0 1 1 1 1 2 2
3 2 1 1 2 2 3 1 1 3 2 5 6 6 5 5 4 3 2 2 2 2 2 1 1 2 2 2 1 1 1 1 1 1 1 1 1 1 1 0 1 1 0 0 1 1 1 1 1
3 3 2 1 1 1 3 2 2 3 4 5 4 4 3 3 3 3 3 3 3 2 2 2 2 2 2 2 1 1 2 2 1 1 1 1 1 1 1 1 0 0 0 0 1 1 1 2 2
2 3 1 2 1 0 2 3 2 2 4 4 3 3 3 2 3 2 2 2 2 2 2 1 2 2 2 1 1 2 2 2 1 1 1 1 1 1 1 1 0 0 0 1 1 1 1 2 2
3 1 1 2 1 1 2 4 3 1 3 3 3 3 3 2 2 3 2 2 3 3 2 2 2 2 2 1 1 2 2 2 1 1 1 1 1 1 1 1 0 0 1 1 1 1 1 1 1
2 2 1 2 1 1 2 4 4 2 4 4 4 3 3 4 4 3 2 2 2 2 2 2 2 1 2 1 1 2 2 1 1 1 1 1 1 1 1 0 1 1 1 1 1 1 1 1 1
3 3 2 2 0 0 2 4 6 3 3 4 5 5 5 5 4 2 2 2 1 1 1 2 2 1 1 1 1 1 0 0 1 1 1 1 1 1 1 1 1 1 1 1 2 2 2 1 1
2 2 0 2 1 0 1 5 5 4 5 6 6 6 6 5 3 3 2 2 3 3 3 2 2 1 1 1 1 1 1 1 0 1 1 1 1 1 0 1 1 1 1 1 1 2 2 1 1
0 3 2 1 3 1 1 4 3 3 2 3 4 5 5 6 6 5 3 3 3 4 4 3 2 2 1 1 1 1 1 1 1 1 1 1 1 0 0 1 1 1 1 1 2 2 3 2 1
2 1 2 1 1 2 1 3 6 3 3 4 5 5 6 5 5 5 4 4 4 4 3 3 3 2 2 2 2 3 2 2 2 1 1 1 1 1 0 1 1 1 1 1 1 2 2 3 2
2 1 1 0 0 1 1 1 8 2 4 7 6 7 7 6 5 5 5 5 4 3 2 2 2 2 2 2 3 2 2 2 1 0 0 0 1 1 1 0 1 1 1 1 1 1 2 2 2
1 2 2 2 3 1 2 3 7 5 7 6 6 6 6 5 4 4 3 3 2 2 2 1 2 2 1 2 2 3 3 2 1 1 1 1 1 1 1 0 1 1 1 1 1 1 2 2 2
1 4 4 5 4 5 1 3 10 6 6 6 7 7 6 5 5 4 4 3 3 3 3 2 2 2 2 2 2 2 3 3 2 2 1 1 1 1 2 1 1 1 1 1 1 1 1 2 2
1 3 5 3 4 4 2 6 8 4 4 4 4 5 5 5 5 5 5 5 4 4 4 4 3 3 2 2 2 2 2 2 2 2 1 2 2 2 1 1 1 1 1 1 1 1 1 1 2
2 2 2 5 1 2 5 7 9 2 2 2 3 3 5 6 6 5 5 5 5 5 5 5 4 3 3 3 3 2 3 3 2 1 1 1 1 1 1 1 1 1 1 1 1 1 1 1 1
1 4 4 4 2 3 6 5 6 5 6 5 5 5 6 5 5 5 5 4 4 4 4 4 4 4 4 3 2 2 2 3 2 2 1 1 1 1 1 1 1 1 1 1 1 1 1 1 1
2 2 3 3 3 4 4 9 7 7 6 7 8 7 6 6 6 5 5 4 3 3 3 3 3 3 3 3 2 2 2 2 2 2 2 1 1 1 1 1 1 1 1 1 1 1 1 1 0
2 4 5 4 4 4 3 10 4 5 5 6 7 6 5 6 5 5 4 4 3 3 3 3 3 3 3 3 2 2 2 2 2 2 1 1 1 1 1 1 1 1 1 1 2 1 1 1 1
Wind_Direction
330 329 30 57 58 58 92 290 55 49 43 13 54 83 93 83 96 126 96 64 77 103 93 89 89 93 90 93 99 98 97 93 89 86 81 80 79 79 79 78 74 73 75 78 77 75 73 70 66
323 341 46 58 86 104 261 291 62 68 130 97 55 66 75 68 57 86 51 50 93 98 88 86 92 96 95 95 97 96 95 94 91 85 81 78 77 76 75 75 73 69 70 72 73 73 71 67 63
326 36 70 72 98 161 182 217 141 77 66 63 56 51 75 87 72 79 49 101 93 90 81 81 90 98 98 96 95 95 92 88 86 83 80 77 77 77 75 74 72 68 70 70 70 68 69 67 62
36 46 58 75 119 230 176 186 149 116 52 47 84 72 58 53 63 96 105 91 86 76 75 85 88 96 95 94 95 95 94 90 84 81 81 78 74 75 74 73 70 69 68 68 66 63 61 64 64
60 73 72 75 188 265 146 181 124 98 80 48 83 97 71 12 76 97 98 93 86 68 60 77 77 93 93 91 92 95 95 92 87 81 80 77 73 71 75 72 70 67 68 68 65 63 58 55 54
59 75 103 168 195 220 306 3 98 88 91 80 87 108 116 83 86 96 95 93 93 83 66 67 69 73 85 89 88 86 87 89 88 84 79 74 70 67 71 72 69 67 67 68 64 63 59 54 54
101 101 143 161 167 198 257 64 112 125 108 119 124 116 129 133 108 107 100 95 89 83 72 57 53 64 68 80 85 82 82 81 78 75 72 67 63 58 59 64 65 64 64 66 65 62 59 59 56
120 108 121 156 169 206 269 66 83 109 127 91 105 132 166 194 146 110 102 95 91 83 78 69 48 45 62 80 83 81 79 75 70 68 67 64 62 60 56 55 60 61 61 66 65 64 60 57 53
85 87 157 184 177 195 179 95 30 65 100 77 64 132 156 150 134 116 107 88 81 71 60 68 62 36 45 75 83 86 85 81 78 71 70 68 60 61 56 48 59 61 61 71 73 67 62 55 50
78 133 191 204 178 167 147 131 153 102 82 86 77 82 119 134 138 137 136 134 121 92 50 68 67 46 30 68 83 98 99 97 87 87 85 73 60 56 53 42 46 53 56 64 66 63 57 50 41
89 145 160 163 204 145 131 127 135 138 173 180 168 157 144 141 142 148 153 154 165 170 119 77 79 71 52 52 94 98 97 96 88 93 97 92 72 55 39 25 31 40 49 50 47 49 50 46 41
87 63 119 175 51 99 131 134 85 181 215 193 167 157 154 157 164 167 168 166 167 160 149 103 97 83 63 48 99 103 96 93 88 97 108 104 86 63 47 17 6 37 46 57 48 55 56 51 46
82 79 35 57 67 82 84 78 111 272 239 148 143 148 161 169 174 176 170 165 160 160 160 138 114 99 81 62 68 94 98 106 112 106 97 110 119 134 116 354 22 14 51 82 73 78 72 65 52
124 112 58 43 65 63 90 49 70 266 162 133 143 155 166 169 171 167 171 178 187 193 186 165 141 123 97 71 53 103 101 96 86 87 81 106 123 134 130 65 36 19 17 114 125 116 106 83 68
115 88 19 349 96 112 86 358 246 229 151 146 157 165 164 170 169 178 194 201 204 204 193 170 153 123 114 91 70 90 88 79 70 68 67 72 95 126 134 119 72 345 17 63 117 103 89 80 67
91 87 44 314 115 107 122 260 275 184 160 169 176 177 175 189 197 200 200 201 191 181 184 178 149 134 125 110 127 108 97 86 68 41 53 67 66 93 125 117 128 299 78 81 88 116 94 69 69
53 117 194 303 357 105 145 246 265 199 183 188 192 192 192 206 222 223 211 195 190 183 184 172 158 153 137 140 144 114 107 99 91 60 23 54 59 63 112 129 164 134 104 93 80 61 117 102 71
170 161 173 236 281 99 184 251 273 236 201 204 200 202 207 217 231 223 217 207 202 190 180 172 171 167 139 128 108 91 73 66 62 65 16 29 43 46 82 80 32 87 105 76 74 65 67 110 102
131 136 162 249 254 57 231 259 266 247 216 214 211 210 215 230 239 222 208 204 200 185 167 186 191 175 148 137 133 131 105 14 16 19 3 3 1 48 104 97 68 75 111 115 113 104 95 60 82
108 126 137 307 352 126 280 278 267 236 215 209 209 214 219 234 246 241 214 194 199 202 201 201 203 185 192 197 165 176 167 186 184 358 359 357 344 345 122 132 138 124 123 111 122 121 130 114 81
37 164 176 255 333 3 356 315 284 264 230 221 221 222 217 218 223 225 216 212 209 211 209 201 209 207 205 181 120 98 84 51 24 330 319 327 319 299 181 163 150 154 156 175 178 154 152 167 184
235 201 149 156 61 313 77 289 277 255 262 239 231 230 228 224 221 220 219 221 223 225 213 198 199 197 196 174 160 170 181 202 232 240 249 302 318 296 225 181 169 167 165 176 191 164 168 159 173
209 176 150 203 97 348 3 203 279 271 251 245 232 226 230 226 220 221 220 220 223 216 207 203 189 200 204 186 177 183 204 218 221 242 238 314 337 331 293 200 172 182 180 179 180 168 166 168 175
168 68 62 50 59 307 241 189 271 232 224 232 224 224 228 222 221 228 226 213 216 200 195 198 191 221 214 194 186 190 197 194 187 236 240 282 330 329 306 235 213 205 187 190 198 192 178 178 176
71 89 39 7 5 259 258 221 252 244 227 216 217 223 225 216 213 221 220 213 215 208 204 201 204 230 228 203 201 205 205 189 195 210 215 217 269 279 259 224 214 214 218 208 187 182 190 180 181
202 131 146 186 234 281 295 240 254 249 243 226 219 219 215 217 216 219 218 210 208 208 205 202 208 223 221 211 219 214 204 195 201 205 203 212 224 241 236 204 202 210 197 190 183 184 202 190 198
138 145 141 124 94 289 270 278 294 250 260 237 226 216 220 222 222 222 220 212 206 205 207 202 202 210 213 213 210 207 203 194 190 188 202 227 240 233 207 184 186 201 193 194 186 188 210 194 202
140 144 106 116 148 269 285 267 253 247 243 241 233 229 232 226 225 222 218 216 215 210 209 200 197 206 212 206 204 200 201 192 183 170 199 220 232 222 149 138 177 191 199 198 188 199 208 190 224
148 148 135 132 163 172 264 268 228 218 218 222 229 228 224 220 223 221 219 215 211 209 202 199 197 201 204 200 195 188 185 176 168 180 204 209 209 179 159 154 136 164 179 165 159 185 169 170 228
206 190 162 165 223 205 224 266 261 230 232 224 231 231 226 221 219 217 214 207 205 208 209 208 204 203 205 194 183 187 180 161 165 188 200 178 175 166 161 134 123 134 163 154 157 177 169 166 195